Regional Weather Roundup
Issued by NWS Kansas City/Pleasant Hill, MO

Home | Current Version | Previous Version | Graphics & Text | Print | Product List | Glossary Off
Versions: 1 2 3 4 5 6 7 8 9 10 11 12 13 14 15 16 17 18 19 20 21 22 23 24 25 26 27 28 29 30 31 32 33 34 35 36 37 38 39 40 41 42 43 44 45 46 47 48 49 50

000
ASUS43 KEAX 071710
RWREAX

WEATHER ROUNDUP FOR EASTERN KANSAS AND NORTHWEST MISSOURI
NATIONAL WEATHER SERVICE KANSAS CITY/PLEASANT HILL MO
1100 AM CST SUN FEB 07 2016

KSZ040-057-103>105-MOZ028-029-037-043-071800-
...KANSAS CITY METROPOLITAN AREA...

CITY           SKY/WX    TMP DP  RH WIND       PRES   REMARKS
K.C. INTL      PTSUNNY   48  28  46 NW17G23   30.05R
K.C. DOWNTOWN  SUNNY     50  26  39 NW17G26   30.05S
LEES SUMMIT    MOSUNNY   47  27  45 NW17      30.04S
OLATHE - IXD   SUNNY     48  28  46 NW21      30.07R
OLATHE - OJC   SUNNY     48  26  42 NW16G24   30.06R
LAWRENCE       SUNNY     49  30  48 NW14      30.09R

$$

MOZ001>008-011>017-020>025-030>033-038>040-044>046-053-054-071800-
...NORTHERN AND CENTRAL MISSOURI...

CITY           SKY/WX    TMP DP  RH WIND       PRES   REMARKS
ST. JOSEPH     MOSUNNY   46  26  45 NW17      30.07R
MOSBY          SUNNY     46  28  49 NW13G21   30.04R
WARRENSBURG    CLOUDY    45  30  57 NW10G16   30.02F
WHITEMAN AFB   CLOUDY    45  28  53 NW10      30.01R
CLINTON          N/A     45  32  61 W13       30.06R
SEDALIA        CLOUDY    45  29  53 W15G21    30.02S
WARSAW         NOT AVBL
CHILLICOTHE      N/A     47  30  51 NW14G20   30.00R
KIRKSVILLE     MOSUNNY   46  28  49 NW15      29.93S

$$

MOZ041-047>049-056>058-063>065-088>090-097-071800-
...EASTERN AND SOUTHERN MISSOURI...

CITY           SKY/WX    TMP DP  RH WIND       PRES   REMARKS
ST. LOUIS INTL PTSUNNY   53  28  38 W20G30    29.96F
SPIRIT OF STL  SUNNY     50  28  42 W21G32    29.95F
COLUMBIA       PTSUNNY   45  28  51 W17       29.98F
JEFFERSON CITY MOSUNNY   48  28  46 W20G26    30.00F
ROLLA          MOSUNNY   48  28  46 W17       29.97F
OSAGE BEACH    CLOUDY    46  27  46 SW12      30.02F
SPRINGFIELD    CLOUDY    46  28  49 W13       30.06S
BRANSON        CLOUDY    48  28  46 W17G32    30.09F
JOPLIN         CLOUDY    44  29  55 SW10      30.11F
WEST PLAINS    MOSUNNY   49  27  42 W12G21    30.06F

$$

IAZ060-094-KSZ022-034>040-054-083-096-NEZ052-066-093-071800-
...KANSAS...SOUTHEAST NEBRASKA AND IOWA...

CITY           SKY/WX    TMP DP  RH WIND       PRES   REMARKS
TOPEKA         PTSUNNY   48  25  40 NW17      30.11R
MANHATTAN      CLOUDY    48  25  40 W9        30.15R
EMPORIA        SUNNY     50  26  39 N18       30.13R
CHANUTE        CLOUDY    45  29  53 NW9       30.12R
WICHITA        CLOUDY    48  26  42 N21       30.19R
OMAHA          PTSUNNY   41  27  57 NW22G29   30.00R WCI  31
LINCOLN        SUNNY     42  26  53 W21G28    30.08R WCI  33
FALLS CITY     MOSUNNY   47  27  45 W18       30.07R
LAMONI         SUNNY     43  29  57 W21       29.97R WCI  34
DES MOINES     PTSUNNY   42  26  53 NW21G28   29.91R WCI  33

$$




USA.gov is the U.S. government's official web portal to all federal, state and local government web resources and services.